SBIRS GEO-3 (USA 282)

Last updated on Nov. 16, 2019, 4:19 a.m. UTC

1 43162U 18009A   19318.87053814 -.00000283  00000-0  00000-0 0  9996
2 43162   5.3681 317.7379 0002471 273.0582 275.3073  1.00271623  6712
UTC
Height (km)
Latitude
Longitude
Inclination
Orbital Period
UTC large
Height (km)
Speed (km/s)
/
Latitude / Longitude
Inclination (degrees)
Orbital Period (minutes)
Azimuth
Elevation
Range (km)
Doppler Factor
iOS Compass Heading
iOS Angle

Next 30 passes for location: Hong Kong

Rise time Rise Azimuth (degrees) Set time Set Azimuth (degrees) Duration Max altitude (degrees)

No matching passes for this satellites